VK3VJP-13 Weather Reports


time (UTC)temp
C
wind
direction
speed
KPH
gust
KPH
rain 1hr
cm
rain 24hr
cm
rain mn
cm
humidity
%
barometer
mb
20260510095251 8 169 3.2 9.7 0.00 0.00 0.00 86 1030.5
20260510094751 8 230 3.2 9.7 0.00 0.00 0.00 86 1030.5
20260510094251 8 116 3.2 11.3 0.00 0.00 0.00 86 1030.4
20260510093751 8 153 1.6 6.4 0.00 0.00 0.00 85 1030.4
20260510093251 8 220 1.6 6.4 0.00 0.00 0.00 85 1030.3
20260510092751 9 109 3.2 8.0 0.00 0.00 0.00 85 1030.3
20260510092251 9 106 3.2 8.0 0.00 0.00 0.00 85 1030.1
20260510091751 9 259 3.2 9.7 0.00 0.00 0.00 85 1030.2
20260510091251 9 142 1.6 6.4 0.00 0.00 0.00 85 1030.1
20260510090751 9 90 1.6 6.4 0.00 0.00 0.00 85 1030.0
20260510090251 9 205 1.6 9.7 0.00 0.00 0.00 85 1029.9
20260510085751 9 99 3.2 8.0 0.00 0.00 0.00 85 1029.9
20260510085251 9 303 3.2 6.4 0.00 0.00 0.00 85 1029.8
20260510084751 9 238 3.2 6.4 0.00 0.00 0.00 85 1029.9
20260510084251 9 149 1.6 6.4 0.00 0.00 0.00 84 1029.9
20260510083751 10 327 1.6 8.0 0.00 0.00 0.00 84 1029.8
20260510083251 10 179 1.6 8.0 0.00 0.00 0.00 84 1029.7
20260510082751 10 85 1.6 6.4 0.00 0.00 0.00 84 1029.7
20260510082251 10 140 1.6 8.0 0.00 0.00 0.00 83 1029.6
20260510081751 10 147 1.6 8.0 0.00 0.00 0.00 83 1029.6
20260510081251 10 194 1.6 4.8 0.00 0.00 0.00 83 1029.6
20260510080751 10 223 1.6 3.2 0.00 0.00 0.00 82 1029.6
20260510080251 10 221 1.6 6.4 0.00 0.00 0.00 82 1029.4
20260510075751 10 103 1.6 3.2 0.00 0.00 0.00 81 1029.4
20260510075251 10 206 1.6 6.4 0.00 0.00 0.00 81 1029.5
20260510074751 11 157 1.6 3.2 0.00 0.00 0.00 80 1029.4
20260510074251 11 234 1.6 3.2 0.00 0.00 0.00 79 1029.4
20260510073751 11 107 1.6 4.8 0.00 0.00 0.00 79 1029.3
20260510073251 11 183 1.6 4.8 0.00 0.00 0.00 78 1029.3
20260510072751 11 143 1.6 6.4 0.00 0.00 0.00 77 1029.3
20260510072251 12 172 1.6 4.8 0.00 0.00 0.00 77 1029.3
20260510071751 12 126 0.0 3.2 0.00 0.00 0.00 76 1029.3
20260510071251 12 104 1.6 3.2 0.00 0.00 0.00 75 1029.3
20260510070751 12 178 1.6 6.4 0.00 0.00 0.00 75 1029.3
20260510070251 12 92 1.6 6.4 0.00 0.00 0.00 75 1029.3
20260510065751 12 150 1.6 6.4 0.00 0.00 0.00 75 1029.2
20260510065251 13 190 1.6 8.0 0.00 0.00 0.00 74 1029.1
20260510064751 13 265 1.6 4.8 0.00 0.00 0.00 73 1029.2
20260510064251 13 148 1.6 8.0 0.00 0.00 0.00 73 1029.1
20260510063751 13 146 1.6 8.0 0.00 0.00 0.00 74 1029.1
20260510063251 13 232 3.2 8.0 0.00 0.00 0.00 73 1029.0
20260510062751 13 207 3.2 9.7 0.00 0.00 0.00 73 1029.0
20260510062251 13 205 3.2 11.3 0.00 0.00 0.00 73 1029.0
20260510061751 13 229 1.6 3.2 0.00 0.00 0.00 73 1028.9
20260510061251 13 117 1.6 6.4 0.00 0.00 0.00 73 1028.9
20260510060751 13 206 3.2 6.4 0.00 0.00 0.00 73 1028.9
20260510060251 13 183 3.2 9.7 0.00 0.00 0.00 72 1028.8
20260510055751 13 238 1.6 11.3 0.00 0.00 0.00 72 1028.8
20260510055251 13 254 3.2 6.4 0.00 0.00 0.00 72 1028.8
20260510054751 13 66 4.8 6.4 0.00 0.00 0.00 71 1028.8
20260510054251 14 74 4.8 14.5 0.00 0.00 0.00 70 1028.7
20260510053751 14 40 3.2 9.7 0.00 0.00 0.00 70 1028.8
20260510053251 14 198 3.2 11.3 0.00 0.00 0.00 72 1028.8
20260510052751 13 117 3.2 12.9 0.00 0.00 0.00 71 1028.7
20260510052251 13 86 3.2 9.7 0.00 0.00 0.00 72 1028.7
20260510051751 13 182 4.8 12.9 0.00 0.00 0.00 73 1028.7
20260510051251 13 69 4.8 12.9 0.00 0.00 0.00 72 1028.6
20260510050751 13 128 3.2 8.0 0.00 0.00 0.00 72 1028.7
20260510050251 13 251 4.8 11.3 0.00 0.00 0.00 70 1028.6
20260510045751 13 61 4.8 14.5 0.00 0.00 0.00 70 1028.7
20260510045251 13 197 4.8 11.3 0.00 0.00 0.00 71 1028.7
20260510044751 13 257 3.2 11.3 0.00 0.00 0.00 72 1028.6
20260510044251 13 225 3.2 11.3 0.00 0.00 0.00 71 1028.7
20260510043751 14 212 4.8 16.1 0.00 0.00 0.00 70 1028.6
20260510043251 14 0 3.2 11.3 0.00 0.00 0.00 70 1028.6
20260510042752 14 134 3.2 16.1 0.00 0.00 0.00 69 1028.6
20260510042251 14 197 4.8 14.5 0.00 0.00 0.00 70 1028.5
20260510041752 15 19 4.8 8.0 0.00 0.00 0.00 69 1028.5
20260510041252 15 155 4.8 11.3 0.00 0.00 0.00 71 1028.5
20260510040752 15 115 4.8 12.9 0.00 0.00 0.00 70 1028.6
20260510040252 15 230 4.8 11.3 0.00 0.00 0.00 70 1028.6
20260510035752 15 132 3.2 16.1 0.00 0.00 0.00 70 1028.6
20260510035252 15 57 3.2 14.5 0.00 0.00 0.00 70 1028.7
20260510034752 15 219 3.2 11.3 0.00 0.00 0.00 72 1028.6
20260510034252 15 261 4.8 14.5 0.00 0.00 0.00 71 1028.6
20260510033752 15 192 4.8 14.5 0.00 0.00 0.00 71 1028.6
20260510033252 15 9 3.2 11.3 0.00 0.00 0.00 70 1028.6
20260510032752 15 94 3.2 8.0 0.00 0.00 0.00 71 1028.7
20260510032252 15 105 4.8 16.1 0.00 0.00 0.00 71 1028.7
20260510031752 15 149 3.2 9.7 0.00 0.00 0.00 72 1028.7
20260510031252 15 69 3.2 8.0 0.00 0.00 0.00 71 1028.6
20260510030752 15 98 4.8 6.4 0.00 0.00 0.00 72 1028.8
20260510030252 15 171 4.8 12.9 0.00 0.00 0.00 73 1028.8
20260510025752 14 192 3.2 9.7 0.00 0.00 0.00 73 1028.8
20260510025252 14 242 4.8 9.7 0.00 0.00 0.00 73 1028.9
20260510024752 14 321 4.8 12.9 0.00 0.00 0.00 73 1029.0
20260510023752 14 28 4.8 20.9 0.00 0.00 0.00 73 1029.1
20260510023252 14 182 4.8 14.5 0.00 0.00 0.00 72 1029.2
20260510022752 14 217 3.2 14.5 0.00 0.00 0.00 75 1029.2
20260510022252 14 103 4.8 14.5 0.00 0.00 0.00 73 1029.3
20260510021752 14 263 4.8 8.0 0.00 0.00 0.00 73 1029.4
20260510021252 14 184 3.2 8.0 0.00 0.00 0.00 74 1029.5
20260510020752 13 115 3.2 6.4 0.00 0.00 0.00 75 1029.6
20260510020252 13 355 3.2 11.3 0.00 0.00 0.00 75 1029.6
20260510015752 13 76 4.8 11.3 0.00 0.00 0.00 76 1029.5
20260510015252 13 56 6.4 12.9 0.00 0.00 0.00 77 1029.7
20260510014752 13 144 6.4 12.9 0.00 0.00 0.00 77 1029.6
20260510014252 13 5 6.4 14.5 0.00 0.00 0.00 77 1029.6
20260510013752 13 234 6.4 17.7 0.00 0.00 0.00 77 1029.8
20260510013252 13 159 6.4 14.5 0.00 0.00 0.00 78 1029.8
20260510012752 12 157 6.4 17.7 0.00 0.00 0.00 78 1029.9
20260510012252 12 215 6.4 17.7 0.00 0.00 0.00 78 1030.0
20260510011252 12 54 4.8 12.9 0.00 0.00 0.00 78 1030.0
20260510010752 12 128 4.8 11.3 0.00 0.00 0.00 79 1030.0
20260510010252 12 225 4.8 12.9 0.00 0.00 0.00 79 1030.0
20260510005752 12 254 6.4 14.5 0.00 0.00 0.00 81 1029.9
20260510005252 12 74 8.0 17.7 0.00 0.00 0.00 81 1029.9
20260510004752 11 194 6.4 20.9 0.00 0.00 0.00 81 1029.9
20260510004252 11 149 6.4 14.5 0.00 0.00 0.00 80 1030.0
20260510003752 11 115 6.4 16.1 0.00 0.00 0.00 82 1029.9
20260510003252 11 122 6.4 16.1 0.00 0.00 0.00 83 1029.9
20260510002752 11 88 6.4 17.7 0.00 0.00 0.00 83 1030.0
20260510002252 11 213 8.0 22.5 0.00 0.00 0.00 83 1029.8
20260510001752 11 185 8.0 16.1 0.00 0.00 0.00 84 1029.8
20260510001252 10 71 6.4 20.9 0.00 0.00 0.00 85 1029.9
20260510000752 10 105 6.4 19.3 0.00 0.00 0.00 87 1029.8
20260510000252 10 271 6.4 16.1 0.00 0.00 0.00 88 1029.8
20260509235752 10 107 6.4 19.3 0.00 0.00 0.00 88 1029.9
20260509235252 10 217 6.4 17.7 0.00 0.00 0.00 88 1029.9
20260509234752 10 213 6.4 20.9 0.00 0.00 0.00 88 1029.9
20260509234252 10 61 6.4 22.5 0.00 0.00 0.00 88 1029.8
20260509233752 10 264 4.8 19.3 0.00 0.00 0.00 89 1029.9
20260509233252 10 168 6.4 16.1 0.00 0.00 0.00 89 1029.9
20260509232752 9 255 6.4 19.3 0.00 0.00 0.00 89 1029.8
20260509232252 9 34 4.8 16.1 0.00 0.00 0.00 90 1030.0
20260509231752 9 148 4.8 12.9 0.00 0.00 0.00 90 1030.1
20260509231252 9 239 6.4 16.1 0.00 0.00 0.00 90 1030.0
20260509230752 9 24 4.8 17.7 0.00 0.00 0.00 91 1030.1
20260509230252 9 170 4.8 11.3 0.00 0.00 0.00 91 1030.1
20260509225752 9 81 4.8 12.9 0.00 0.00 0.00 91 1029.9
20260509225252 9 156 3.2 14.5 0.00 0.00 0.00 92 1030.0
20260509224752 9 130 3.2 8.0 0.00 0.00 0.00 92 1030.0
20260509224252 9 194 3.2 9.7 0.00 0.00 0.00 92 1029.9
20260509223752 9 244 4.8 12.9 0.00 0.00 0.00 92 1029.7
20260509223252 9 217 3.2 9.7 0.00 0.00 0.00 92 1029.7
20260509222752 9 276 3.2 11.3 0.00 0.00 0.00 93 1029.6
20260509222252 9 281 3.2 8.0 0.00 0.00 0.00 93 1029.6
20260509221753 9 244 3.2 8.0 0.00 0.00 0.00 93 1029.5
20260509221252 9 349 3.2 6.4 0.00 0.00 0.00 93 1029.5
20260509220752 9 110 3.2 9.7 0.00 0.00 0.00 93 1029.4
20260509220252 9 84 3.2 12.9 0.00 0.00 0.00 93 1029.5
20260509215752 9 167 1.6 14.5 0.00 0.00 0.00 93 1029.3
20260509215252 9 167 1.6 6.4 0.00 0.00 0.00 93 1029.4
20260509214752 8 150 3.2 9.7 0.00 0.00 0.00 93 1029.3
20260509214252 8 145 3.2 8.0 0.00 0.00 0.00 93 1029.3
20260509213752 8 115 3.2 6.4 0.00 0.00 0.00 93 1029.2
20260509213252 8 163 1.6 8.0 0.00 0.00 0.00 93 1029.2
20260509212752 8 189 1.6 8.0 0.00 0.00 0.00 93 1029.1
20260509212252 8 0 3.2 6.4 0.00 0.00 0.00 92 1029.0
20260509211752 8 246 3.2 8.0 0.00 0.00 0.00 92 1029.0
20260509211252 9 148 3.2 11.3 0.00 0.00 0.00 92 1028.9
20260509210752 9 250 3.2 8.0 0.00 0.00 0.00 93 1028.9
20260509210252 9 94 3.2 8.0 0.00 0.00 0.00 93 1028.9
20260509205752 9 150 3.2 8.0 0.00 0.00 0.00 93 1028.8
20260509205252 9 178 3.2 9.7 0.00 0.00 0.00 92 1028.6
20260509204752 9 92 3.2 4.8 0.00 0.00 0.00 92 1028.7
20260509204252 9 180 3.2 11.3 0.00 0.00 0.00 92 1028.6
20260509203752 9 182 3.2 12.9 0.00 0.00 0.00 92 1028.5
20260509203252 9 122 3.2 14.5 0.00 0.00 0.00 92 1028.6
20260509202753 9 186 3.2 8.0 0.00 0.00 0.00 92 1028.6
20260509202252 9 123 3.2 6.4 0.00 0.00 0.00 92 1028.5
20260509201752 9 235 3.2 12.9 0.00 0.00 0.00 92 1028.4
20260509201252 9 142 3.2 6.4 0.00 0.00 0.00 92 1028.4
20260509200752 9 224 4.8 8.0 0.00 0.00 0.00 91 1028.4
20260509200252 9 161 3.2 12.9 0.00 0.00 0.00 91 1028.3
20260509195752 9 187 3.2 8.0 0.00 0.00 0.00 91 1028.4
20260509195252 9 137 3.2 8.0 0.00 0.00 0.00 91 1028.4
20260509194752 9 238 3.2 9.7 0.00 0.00 0.00 91 1028.4
20260509194252 9 171 3.2 9.7 0.00 0.00 0.00 90 1028.4
20260509193752 9 157 3.2 9.7 0.00 0.00 0.00 90 1028.3
20260509193252 9 152 1.6 6.4 0.00 0.00 0.00 90 1028.3
20260509192752 9 226 1.6 4.8 0.00 0.00 0.00 90 1028.3
20260509192252 9 187 1.6 8.0 0.00 0.00 0.00 90 1028.3
20260509191752 9 107 3.2 9.7 0.00 0.00 0.00 90 1028.1
20260509191252 9 117 4.8 14.5 0.00 0.00 0.00 90 1028.0
20260509190753 9 223 4.8 9.7 0.00 0.00 0.00 90 1028.0
20260509190252 9 144 4.8 11.3 0.00 0.00 0.00 90 1027.8
20260509185752 10 159 3.2 11.3 0.00 0.00 0.00 91 1027.8
20260509185252 10 194 1.6 6.4 0.00 0.00 0.00 91 1027.7
20260509184752 10 148 1.6 6.4 0.00 0.00 0.00 92 1027.7
20260509184252 10 148 1.6 8.0 0.00 0.00 0.00 92 1027.7
20260509183752 10 190 1.6 9.7 0.00 0.00 0.00 92 1027.7
20260509183252 10 168 3.2 11.3 0.00 0.00 0.00 92 1027.7
20260509182753 10 211 3.2 8.0 0.00 0.00 0.00 92 1027.6
20260509182253 10 173 1.6 11.3 0.00 0.03 0.00 92 1027.7
20260509181753 10 182 1.6 4.8 0.00 0.03 0.00 92 1027.6
20260509181253 10 188 3.2 6.4 0.00 0.03 0.00 92 1027.5
20260509180753 10 150 3.2 6.4 0.00 0.03 0.00 92 1027.5
20260509180253 10 58 3.2 11.3 0.00 0.03 0.00 92 1027.5
20260509175753 10 161 1.6 4.8 0.00 0.03 0.00 92 1027.5
20260509175253 10 205 1.6 4.8 0.00 0.03 0.00 93 1027.6
20260509174753 10 214 1.6 3.2 0.00 0.03 0.00 93 1027.5
20260509174253 10 136 1.6 6.4 0.00 0.03 0.00 93 1027.5
20260509173753 10 206 1.6 9.7 0.00 0.03 0.00 93 1027.5
20260509173253 10 195 3.2 8.0 0.00 0.03 0.00 93 1027.4
20260509172753 10 62 3.2 11.3 0.00 0.03 0.00 93 1027.4
20260509172253 10 213 1.6 6.4 0.00 0.03 0.00 93 1027.5
20260509171753 10 198 1.6 11.3 0.00 0.03 0.00 93 1027.4
20260509171253 10 148 1.6 8.0 0.00 0.03 0.00 93 1027.5
20260509170753 10 164 3.2 8.0 0.00 0.03 0.00 94 1027.5
20260509170253 10 210 1.6 6.4 0.00 0.03 0.00 94 1027.6
20260509165753 10 269 3.2 6.4 0.00 0.03 0.00 94 1027.6
20260509165253 10 223 3.2 11.3 0.00 0.03 0.00 94 1027.6
20260509164753 10 235 1.6 4.8 0.00 0.03 0.00 94 1027.7
20260509164253 10 177 1.6 4.8 0.00 0.03 0.00 94 1027.6
20260509163753 10 237 0.0 3.2 0.00 0.03 0.00 94 1027.7
20260509163253 10 134 0.0 3.2 0.00 0.03 0.00 94 1027.7
20260509162753 10 183 0.0 3.2 0.00 0.03 0.00 94 1027.7
20260509162253 10 257 1.6 4.8 0.00 0.03 0.00 94 1027.7
20260509161753 10 119 1.6 6.4 0.00 0.03 0.00 94 1027.7
20260509161253 10 237 0.0 0.0 0.00 0.03 0.00 94 1027.8
20260509160753 10 184 0.0 1.6 0.00 0.03 0.00 94 1027.7
20260509160253 10 191 1.6 3.2 0.00 0.03 0.00 94 1027.8
20260509155753 10 160 1.6 4.8 0.00 0.03 0.00 94 1027.8
20260509155253 10 15 1.6 8.0 0.00 0.03 0.00 94 1027.7
20260509154753 10 240 1.6 4.8 0.00 0.03 0.00 94 1027.8
20260509154253 10 105 1.6 6.4 0.00 0.03 0.00 94 1027.6
20260509153753 10 143 3.2 6.4 0.00 0.03 0.00 94 1027.8
20260509153253 10 117 3.2 8.0 0.00 0.03 0.00 94 1027.8
20260509152753 10 138 3.2 9.7 0.00 0.03 0.00 94 1027.8
20260509152253 10 199 3.2 11.3 0.00 0.03 0.00 93 1027.7
20260509151753 10 168 3.2 9.7 0.00 0.03 0.00 93 1027.8
20260509151253 10 200 3.2 8.0 0.00 0.03 0.00 93 1027.7
20260509150753 10 192 3.2 6.4 0.00 0.03 0.00 94 1027.7
20260509150253 10 92 4.8 6.4 0.00 0.03 0.00 93 1027.8
20260509145753 10 178 4.8 14.5 0.00 0.03 0.00 93 1027.7
20260509145253 10 194 4.8 14.5 0.00 0.03 0.00 93 1027.6
20260509144753 10 131 3.2 17.7 0.00 0.03 0.00 93 1027.7
20260509144253 10 161 1.6 11.3 0.00 0.03 0.00 93 1027.7
20260509143753 10 158 1.6 8.0 0.00 0.03 0.00 93 1027.8
20260509143253 10 174 3.2 8.0 0.00 0.03 0.00 93 1027.8
20260509142753 10 130 3.2 8.0 0.00 0.03 0.00 93 1027.8
20260509142253 10 215 3.2 12.9 0.00 0.05 0.00 93 1027.8
20260509141753 10 126 3.2 11.3 0.00 0.05 0.00 93 1027.8
20260509141253 10 150 3.2 12.9 0.00 0.05 0.00 93 1027.8
20260509140753 10 206 4.8 11.3 0.00 0.05 0.00 92 1027.9
20260509140253 10 189 3.2 8.0 0.00 0.05 0.00 93 1028.0
20260509135753 10 209 3.2 11.3 0.00 0.05 0.05 92 1027.9
20260509135253 10 135 3.2 8.0 0.00 0.05 0.05 92 1027.8
20260509134753 10 157 3.2 8.0 0.00 0.05 0.05 92 1028.0
20260509134253 10 153 3.2 8.0 0.00 0.05 0.05 92 1027.9
20260509133753 10 161 4.8 12.9 0.00 0.05 0.05 92 1027.7
20260509133253 10 160 3.2 11.3 0.00 0.05 0.05 92 1027.8
20260509132753 10 208 3.2 11.3 0.00 0.05 0.05 91 1028.0
20260509132253 10 213 3.2 12.9 0.00 0.05 0.05 91 1028.0
20260509131753 10 103 3.2 8.0 0.00 0.05 0.05 91 1028.0
20260509131253 10 199 4.8 11.3 0.00 0.05 0.05 91 1027.9
20260509130753 10 201 3.2 16.1 0.00 0.05 0.05 91 1027.8
20260509130253 10 197 3.2 9.7 0.00 0.05 0.05 92 1027.8
20260509125753 10 175 1.6 9.7 0.00 0.05 0.05 91 1028.0
20260509125253 10 204 1.6 12.9 0.00 0.05 0.05 91 1028.0
20260509124753 10 113 3.2 3.2 0.00 0.05 0.05 92 1028.1
20260509123753 10 265 1.6 8.0 0.00 0.05 0.05 92 1028.1
20260509123253 10 180 1.6 6.4 0.00 0.05 0.05 91 1028.1
20260509122753 10 180 1.6 4.8 0.00 0.05 0.05 91 1028.0
20260509122253 10 227 1.6 3.2 0.00 0.05 0.05 92 1028.1
20260509121753 10 175 1.6 6.4 0.00 0.05 0.05 92 1028.1
20260509121253 10 188 3.2 11.3 0.00 0.05 0.05 92 1028.1
20260509120753 11 233 3.2 9.7 0.00 0.05 0.05 92 1028.1
20260509120253 11 213 3.2 8.0 0.00 0.05 0.05 92 1028.1
20260509115753 11 205 3.2 6.4 0.00 0.05 0.05 92 1028.1
20260509115253 11 181 1.6 11.3 0.00 0.05 0.05 92 1028.0
20260509114253 11 183 1.6 3.2 0.00 0.05 0.05 92 1028.0
20260509113753 11 232 1.6 4.8 0.00 0.05 0.05 92 1027.9
20260509113253 11 194 1.6 4.8 0.00 0.05 0.05 91 1027.9
20260509112753 11 227 1.6 4.8 0.00 0.05 0.05 91 1028.0
20260509112253 11 257 1.6 4.8 0.00 0.05 0.05 91 1028.0
20260509111753 11 248 1.6 4.8 0.00 0.05 0.05 91 1027.9
20260509111253 11 205 1.6 4.8 0.00 0.05 0.05 91 1028.0
20260509110753 11 247 1.6 3.2 0.00 0.05 0.05 91 1028.0
20260509110253 11 209 1.6 4.8 0.00 0.05 0.05 91 1028.0
20260509105753 11 236 1.6 11.3 0.00 0.05 0.05 91 1027.8
20260509105253 11 259 1.6 6.4 0.00 0.05 0.05 91 1027.8
20260509104753 11 183 0.0 6.4 0.00 0.05 0.05 91 1027.9
20260509104253 11 192 1.6 3.2 0.00 0.05 0.05 91 1027.8
20260509103753 11 207 1.6 6.4 0.00 0.05 0.05 91 1027.8
20260509103253 11 171 0.0 4.8 0.00 0.05 0.05 91 1027.8
20260509102753 11 169 0.0 3.2 0.00 0.05 0.05 91 1027.9
20260509102253 11 190 0.0 6.4 0.00 0.08 0.05 91 1027.8
20260509101753 11 171 0.0 6.4 0.00 0.08 0.05 91 1027.8
20260509101253 11 184 1.6 8.0 0.00 0.08 0.05 91 1027.7
20260509100753 11 165 1.6 4.8 0.00 0.08 0.05 91 1027.8
20260509100253 11 173 1.6 4.8 0.00 0.08 0.05 90 1027.8
20260509095753 11 171 0.0 8.0 0.00 0.08 0.05 90 1027.7